Location: Betra
(48.4113°N, 8.6634°E)
Time: 18:53:03
(UTC+00:00)

Resurs 1-4 Rocket - Pass Details

Date: 08 August 2024
Orbit: 798 x 813 km, 98.7° (Epoch: 06 September)

Event Time Altitude Azimuth Distance (km) Brightness Sun altitude
Rises 03:23:56 0° 2° (N) 3,348 5.9 -7.4°
Reaches altitude 10° 03:27:14 10° 340° (NNW) 2,409 4.8 -7.0°
Maximum altitude 03:30:11 15° 307° (NW) 2,055 4.0 -6.6°
Drops below altitude 10° 03:33:07 10° 272° (W) 2,397 4.1 -6.2°
Enters shadow 03:34:50 - 259° (W) 2,834 4.3 -5.9°
